User: anonymous   Login
Location: Brunembert
(50.7122°N, 1.8935°E)
Time: 14:05:02
(UTC+00:00)
Language:

Cosmos 44 - Orbit

View from above orbital plane
View from above orbital plane
View from above satellite
View from above satellite

Ground track
Ground track

The orbit data is extracted from the following two-line orbital elements,

1 00876U 64053A   21170.76017603 -.00000090  00000-0  87535-5 0  9993
2 00876  65.0607 303.9082 0155778 258.7551  99.6008 14.63798854 21637
Epoch (UTC): 19 June 2021 18:14:39
Eccentricity: 0.0155778
inclination: 65.0607°
perigee height: 571 km
apogee height: 791 km
right ascension of ascending node: 303.9082°
argument of perigee: 258.7551°
revolutions per day: 14.63798854
mean anomaly at epoch: 99.6008°
orbit number at epoch: 2163

The dashed part of the orbit path shows where the satellite is in the earth's shadow,  

DLR